Weather History for Dallas/Ft Worth, TX

Change the Weather History Date:

Monday, March 25, 2013

  Actual Average Record
Temperature  
Mean Temperature 44 °F 60 °F  
Max Temperature 55 °F 71 °F 97 °F (1899)
Min Temperature 32 °F 49 °F 26 °F (1955)
Degree Days  
Heating Degree Days 21 6  
Month to date heating degree days 246 227  
Since 1 July heating degree days 1836 2159  
Cooling Degree Days 0 1  
Month to date cooling degree days 15 23  
Year to date cooling degree days 27 30  
Moisture  
Dew Point 18 °F    
Average Humidity 40    
Maximum Humidity 61    
Minimum Humidity 19    
Precipitation  
Precipitation 0.00 in 0.12 in 3.40 in (1904)
Month to date precipitation 1.30 2.86  
Year to date precipitation 7.04 7.65  
Snow  
Snow 0.00 in 0.00 in T in (1996)
Month to date snowfall 0.0 0.2  
Since 1 July snowfall 0.8 1.2  
Snow Depth 0.00 in    
Sea Level Pressure  
Sea Level Pressure 30.31 in    
Wind  
Wind Speed 13 mph (NNW)    
Max Wind Speed 25 mph    
Max Gust Speed 32 mph    
Visibility 10 miles    
Events      
T = Trace of Precipitation, MM = Missing Value Source: NWS Daily Summary

Daily Weather History Graph

Daily Weather History Graph

Search for Another Location

Airport:

Trip Planner

Search our weather history database for the weather conditions in past years. The results will help you decide how hot, cold, wet, or windy it might be!

Date:

Astronomy

Mar. 25, 2013 Rise Set
Actual Time 7:24 AM CDT 7:43 PM CDT
Civil Twilight 7:00 AM CDT 8:08 PM CDT
Nautical Twilight 6:31 AM CDT 8:37 PM CDT
Astronomical Twilight 6:02 AM CDT 9:06 PM CDT
Moon 6:19 PM CDT (3/25) 6:04 AM CDT (3/25)
Length of Visible Light 13h 08m
Length of Day
12h 18m
Waxing Gibbous, 96% of the Moon is Illuminated
Mar 25
Waxing Gibbous
Mar 27
Full
Apr 2
Last Quarter
Apr 10
New
Apr 18
First Quarter

Hourly Weather History & Observations

Time (CDT) Temp. Windchill Dew Point Humidity Pressure Visibility Wind Dir Wind Speed Gust Speed Precip Events Conditions
12:53 AM 37.9 °F 30.9 °F 21.0 °F 51% 30.19 in 10.0 mi North 10.4 mph - N/A   Clear
1:53 AM 37.0 °F 29.3 °F 21.0 °F 52% 30.22 in 10.0 mi North 11.5 mph - N/A   Clear
2:53 AM 37.0 °F 27.7 °F 19.9 °F 50% 30.23 in 10.0 mi North 16.1 mph - N/A   Clear
3:53 AM 34.0 °F 26.6 °F 19.9 °F 56% 30.24 in 10.0 mi North 9.2 mph - N/A   Clear
4:53 AM 34.0 °F 26.0 °F 19.9 °F 56% 30.25 in 10.0 mi NNW 10.4 mph - N/A   Clear
5:53 AM 34.0 °F 28.0 °F 21.0 °F 59% 30.28 in 10.0 mi West 6.9 mph - N/A   Clear
6:53 AM 32.0 °F 25.6 °F 19.9 °F 61% 30.30 in 10.0 mi West 6.9 mph - N/A   Clear
7:53 AM 33.1 °F 24.9 °F 19.9 °F 59% 30.33 in 10.0 mi West 10.4 mph - N/A   Clear
8:53 AM 37.9 °F 30.0 °F 19.9 °F 48% 30.35 in 10.0 mi NW 12.7 mph - N/A   Clear
9:53 AM 43.0 °F 35.4 °F 19.9 °F 40% 30.37 in 10.0 mi North 16.1 mph - N/A   Clear
10:53 AM 46.0 °F 39.3 °F 19.9 °F 35% 30.37 in 10.0 mi North 16.1 mph 24.2 mph N/A   Clear
11:53 AM 48.0 °F - 18.0 °F 30% 30.37 in 10.0 mi NNW 18.4 mph - N/A   Clear
12:53 PM 50.0 °F - 19.0 °F 29% 30.36 in 10.0 mi NNW 16.1 mph - N/A   Clear
1:53 PM 51.1 °F - 17.1 °F 26% 30.34 in 10.0 mi North 20.7 mph 26.5 mph N/A   Clear
2:53 PM 53.1 °F - 14.0 °F 21% 30.32 in 10.0 mi NW 19.6 mph 27.6 mph N/A   Clear
3:53 PM 55.0 °F - 14.0 °F 20% 30.30 in 10.0 mi NNW 19.6 mph 26.5 mph N/A   Clear
4:53 PM 54.0 °F - 12.9 °F 20% 30.29 in 10.0 mi NNW 19.6 mph 29.9 mph N/A   Clear
5:53 PM 53.1 °F - 12.9 °F 20% 30.28 in 10.0 mi NNW 19.6 mph - N/A   Clear
6:53 PM 51.1 °F - 12.9 °F 22% 30.30 in 10.0 mi NW 13.8 mph - N/A   Clear
7:53 PM 48.0 °F - 15.1 °F 27% 30.32 in 10.0 mi NNW 11.5 mph - N/A   Clear
8:53 PM 45.0 °F 40.1 °F 17.1 °F 33% 30.35 in 10.0 mi NNW 9.2 mph - N/A   Clear
9:53 PM 43.0 °F 37.2 °F 16.0 °F 34% 30.38 in 10.0 mi North 10.4 mph - N/A   Clear
10:53 PM 39.9 °F 35.8 °F 17.1 °F 40% 30.40 in 10.0 mi North 5.8 mph - N/A   Clear
11:53 PM 39.9 °F 33.4 °F 17.1 °F 40% 30.40 in 10.0 mi North 10.4 mph - N/A   Clear